Latest Coastal Weather Observations for Browse Island

IDW60701

Issued at 6:02 pm WST Sunday 1 February 2015 (issued every 10 minutes, with the page automatically refreshed every 10 minutes)

About coastal observations | Map of coastal stations | Coastal observations for WA | Marine services | Other Formats
Station Details ID: 200784 Name: BROWSE ISLAND Lat: -14.11 Lon: 123.55 Height: 3.7 m
Data from the previous 72 hours. | See also: Recent months for locations in Western Australia
Date/Time
WST
Temp

°C
Wind Pressure Rain
since 9am
mm
Weather Cloud Vis
km
Sea
Height
m
Swell
Dir
 
Speed
knots
Gust
knots
hPa Trend Height
m
Period
s
Dir
01/05:30pm 29.0 SW 13 14 1008.0 - - - - - - - - -
01/05:00pm 29.0 SW 14 15 1008.0 - - - - - - - - -
01/04:30pm 29.0 SW 15 17 1007.0 - - - - - - - - -
01/04:00pm 29.0 SW 17 20 1007.6 - - - - - - - - -
01/03:30pm 29.0 SW 16 17 1007.0 - - - - - - - - -
01/03:00pm 29.0 SW 15 14 1007.9 - - - - - - - - -
01/02:30pm 29.0 SW 14 16 1008.0 - - - - - - - - -
01/02:00pm 28.8 SW 14 15 1008.5 - - - - - - - - -
01/01:30pm 29.0 SW 15 16 1008.0 - - - - - - - - -
01/01:00pm 28.9 SW 13 14 1009.0 - - - - - - - - -
01/12:30pm 29.0 WSW 13 13 1009.0 - - - - - - - - -
01/12:00pm 29.2 SW 12 12 1009.8 - - - - - - - - -
01/11:30am 29.0 WSW 11 11 1010.0 - - - - - - - - -
01/11:00am 28.9 WSW 12 14 1010.7 - - - - - - - - -
01/10:30am 29.0 WSW 12 12 1011.0 - - - - - - - - -
01/10:00am 28.8 WSW 12 14 1011.0 - - - - - - - - -
01/09:30am 29.0 WSW 12 14 1011.0 - - - - - - - - -
01/09:00am 28.7 W 12 15 1011.1 - - - - - - - - -
01/08:30am 29.0 W 12 - 1011.0 - - - - - - - - -
01/08:00am 28.7 WSW 12 - 1011.1 - - - - - - - - -
01/07:30am 29.0 WSW 12 - 1011.0 - - - - - - - - -
01/07:00am 28.5 W 12 - 1010.6 - - - - - - - - -
01/06:30am 28.0 W 13 - 1010.0 - - - - - - - - -
01/06:00am 28.4 W 13 - 1010.2 - - - - - - - - -
01/05:30am 28.0 W 14 - 1010.0 - - - - - - - - -
01/05:00am 28.3 W 14 - 1009.7 - - - - - - - - -
01/04:30am 28.0 W 13 - 1009.0 - - - - - - - - -
01/04:00am 28.2 W 14 - 1009.2 - - - - - - - - -
01/03:30am 28.0 WSW 13 - 1009.0 - - - - - - - - -
01/03:00am 28.2 W 13 - 1008.9 - - - - - - - - -
01/02:30am 28.0 W 13 - 1009.0 - - - - - - - - -
01/02:00am 28.2 W 12 - 1008.7 - - - - - - - - -
01/01:30am 28.0 W 11 - 1008.0 - - - - - - - - -
01/01:00am 28.3 W 11 - 1008.7 - - - - - - - - -
01/12:30am 28.0 W 10 - 1009.0 - - - - - - - - -
01/12:00am 28.5 W 11 11 1009.6 - - - - - - - - -
 
Date/Time
WST
Temp

°C
Wind Pressure Rain
since 9am
mm
Weather Cloud Vis
km
Sea
Height
m
Swell
Dir
 
Speed
knots
Gust
knots
hPa Trend Height
m
Period
s
Dir
31/11:30pm 28.0 W 11 - 1010.0 - - - - - - - - -
31/11:00pm 28.5 W 10 - 1010.1 - - - - - - - - -
31/10:30pm 29.0 W 11 - 1009.0 - - - - - - - - -
31/10:00pm 28.6 W 11 - 1009.9 - - - - - - - - -
31/09:30pm 29.0 W 10 - 1010.0 - - - - - - - - -
31/09:00pm 28.6 W 9 - 1009.7 - - - - - - - - -
31/08:30pm 29.0 W 10 - 1009.0 - - - - - - - - -
31/08:00pm 28.7 W 10 - 1009.3 - - - - - - - - -
31/07:30pm 29.0 W 10 - 1009.0 - - - - - - - - -
31/07:00pm 28.8 W 10 - 1008.5 - - - - - - - - -
31/06:30pm 29.0 W 9 - 1008.0 - - - - - - - - -
31/06:00pm 28.8 W 10 - 1007.9 - - - - - - - - -
31/05:30pm 29.0 WSW 10 - 1007.0 - - - - - - - - -
31/05:00pm 29.0 SW 9 - 1007.2 - - - - - - - - -
31/04:30pm 29.0 SW 10 - 1006.0 - - - - - - - - -
31/04:00pm 28.9 SW 11 - 1006.5 - - - - - - - - -
31/03:30pm 29.0 SSW 11 - 1006.0 - - - - - - - - -
31/03:00pm 29.0 SW 11 - 1007.0 - - - - - - - - -
31/02:30pm 29.0 SW 11 - 1007.0 - - - - - - - - -
31/02:00pm 29.0 SW 13 - 1007.7 - - - - - - - - -
31/01:30pm 29.0 WSW 12 - 1008.0 - - - - - - - - -
31/01:00pm 29.0 WSW 13 - 1008.7 - - - - - - - - -
31/12:30pm 29.0 W 12 - 1009.0 - - - - - - - - -
31/12:00pm 29.0 W 13 - 1009.4 - - - - - - - - -
31/11:30am 29.0 W 13 - 1009.0 - - - - - - - - -
31/11:00am 28.9 W 13 - 1010.1 - - - - - - - - -
31/10:30am 29.0 W 13 - 1010.0 - - - - - - - - -
31/10:00am 28.9 W 11 - 1010.5 - - - - - - - - -
31/09:30am 29.0 W 10 - 1010.0 - - - - - - - - -
31/09:00am 28.7 W 11 - 1010.2 - - - - - - - - -
31/08:30am 29.0 W 11 - 1009.0 - - - - - - - - -
31/08:00am 28.5 W 10 - 1009.6 - - - - - - - - -
31/07:30am 29.0 W 9 - 1009.0 - - - - - - - - -
31/07:00am 28.5 W 9 - 1009.4 - - - - - - - - -
31/06:30am 29.0 W 10 - 1009.0 - - - - - - - - -
31/06:00am 28.5 W 11 - 1008.9 - - - - - - - - -
31/05:30am 29.0 W 10 - 1008.0 - - - - - - - - -
31/05:00am 28.5 W 11 - 1008.7 - - - - - - - - -
31/04:30am 29.0 W 10 - 1008.0 - - - - - - - - -
31/04:00am 28.6 W 11 - 1008.6 - - - - - - - - -
31/03:30am 29.0 WNW 11 - 1008.0 - - - - - - - - -
31/03:00am 28.5 W 1 - 1008.5 - - - - - - - - -
31/02:30am 28.0 CALM 0 - 1008.0 - - - - - - - - -
31/02:00am 27.9 CALM 0 - 1008.4 - - - - - - - - -
31/01:30am 28.0 WNW 5 - 1008.0 - - - - - - - - -
31/01:00am 27.7 CALM 0 - 1008.3 - - - - - - - - -
31/12:30am 28.0 CALM 0 - 1008.0 - - - - - - - - -
31/12:00am 27.6 ESE 4 - 1008.7 - - - - - - - - -
 
Date/Time
WST
Temp

°C
Wind Pressure Rain
since 9am
mm
Weather Cloud Vis
km
Sea
Height
m
Swell
Dir
 
Speed
knots
Gust
knots
hPa Trend Height
m
Period
s
Dir
30/11:30pm 28.0 SE 3 - 1009.0 - - - - - - - - -
30/11:00pm 28.1 SSW 4 - 1009.3 - - - - - - - - -
30/10:30pm 28.0 SW 4 - 1009.0 - - - - - - - - -
30/10:00pm 28.0 SSW 3 - 1009.6 - - - - - - - - -
30/09:30pm 28.0 S 5 - 1009.0 - - - - - - - - -
30/09:00pm 28.1 SSW 7 - 1009.4 - - - - - - - - -
30/08:30pm 28.0 SSW 8 - 1009.0 - - - - - - - - -
30/08:00pm 28.1 SSW 7 - 1008.6 - - - - - - - - -
30/07:30pm 28.0 SW 7 - 1008.0 - - - - - - - - -
30/07:00pm 28.1 WSW 9 - 1007.4 - - - - - - - - -
30/06:30pm 28.0 WSW 10 - 1006.0 - - - - - - - - -
30/06:00pm 27.8 W 12 - 1006.1 - - - - - - - - -
30/05:30pm 28.0 W 14 - 1006.0 - - - - - - - - -
30/05:00pm 27.9 W 15 - 1006.3 - - - - - - - - -
30/04:30pm 27.0 WSW 10 - 1006.0 - - - - - - - - -
30/04:00pm 27.3 WSW 9 - 1006.4 - - - - - - - - -
30/03:30pm 27.0 SW 10 - 1006.0 - - - - - - - - -
30/03:00pm 26.7 SW 13 - 1006.5 - - - - - - - - -
30/02:30pm 26.0 S 19 - 1007.0 - - - - - - - - -
30/02:00pm 26.0 SSE 21 - 1007.4 - - - - - - - - -
30/01:30pm 26.0 SSE 20 - 1008.0 - - - - - - - - -
30/01:16pm 26.0 S 15 - 1008.0 - - - - - - - - -
30/01:00pm 24.8 SSW 6 - 1008.5 - - - - - - - - -
30/12:59pm 25.0 SSW 6 - 1008.0 - - - - - - - - -
30/12:38pm 24.0 WSW 20 - 1008.0 - - - - - - - - -
30/12:30pm 26.0 SSW 21 - 1008.0 - - - - - - - - -
30/12:27pm 26.0 SSW 19 - 1008.0 - - - - - - - - -
30/12:00pm 27.5 SSW 11 - 1008.5 - - - - - - - - -
30/11:33am 27.0 S 16 - 1009.0 - - - - - - - - -
30/11:30am 28.0 SW 8 - 1009.0 - - - - - - - - -
30/11:00am 28.2 W 10 - 1009.1 - - - - - - - - -
30/10:30am 28.0 W 13 - 1009.0 - - - - - - - - -
30/10:00am 27.5 W 13 - 1009.4 - - - - - - - - -
30/09:30am 28.0 W 15 - 1009.0 - - - - - - - - -
30/09:00am 27.2 W 17 - 1009.1 - - - - - - - - -
30/08:30am 26.0 SSW 13 - 1009.0 - - - - - - - - -
30/08:00am 28.1 WNW 12 - 1008.7 - - - - - - - - -
30/07:30am 29.0 WSW 7 - 1008.0 - - - - - - - - -
30/07:00am 28.3 WSW 9 - 1008.1 - - - - - - - - -
30/06:30am 28.0 SW 12 - 1008.0 - - - - - - - - -
30/06:00am 28.4 SW 6 - 1007.4 - - - - - - - - -
30/05:30am 28.0 WSW 5 - 1007.0 - - - - - - - - -
30/05:00am 28.4 WSW 8 - 1006.9 - - - - - - - - -
30/04:30am 29.0 WSW 8 - 1006.0 - - - - - - - - -
30/04:00am 28.4 SW 8 - 1006.6 - - - - - - - - -
30/03:30am 28.0 WSW 8 - 1006.0 - - - - - - - - -
30/03:00am 28.4 W 8 - 1006.5 - - - - - - - - -
30/02:30am 28.0 W 7 - 1006.0 - - - - - - - - -
30/02:00am 28.4 W 6 - 1006.2 - - - - - - - - -
30/01:30am 28.0 WSW 5 - 1006.0 - - - - - - - - -
30/01:00am 28.4 WSW 6 - 1006.8 - - - - - - - - -
30/12:30am 29.0 W 6 - 1007.0 - - - - - - - - -
30/12:00am 28.5 W 6 - 1007.7 - - - - - - - - -
 
Date/Time
WST
Temp

°C
Wind Pressure Rain
since 9am
mm
Weather Cloud Vis
km
Sea
Height
m
Swell
Dir
 
Speed
knots
Gust
knots
hPa Trend Height
m
Period
s
Dir
29/11:30pm 29.0 W 6 - 1008.0 - - - - - - - - -
29/11:00pm 28.6 W 6 - 1008.3 - - - - - - - - -
29/10:30pm 29.0 W 5 - 1008.0 - - - - - - - - -
29/10:00pm 28.6 WSW 6 - 1008.7 - - - - - - - - -
29/09:30pm 29.0 WSW 5 - 1008.0 - - - - - - - - -
29/09:00pm 28.7 SW 6 - 1008.3 - - - - - - - - -
29/08:30pm 29.0 SW 7 - 1008.0 - - - - - - - - -
29/08:00pm 28.7 WSW 7 - 1007.4 - - - - - - - - -
29/07:30pm 29.0 WSW 8 - 1007.0 - - - - - - - - -
29/07:00pm 28.7 WSW 8 - 1006.6 - - - - - - - - -
29/06:30pm 29.0 SW 7 - 1006.0 - - - - - - - - -
29/06:00pm 28.8 SW 8 - 1005.9 - - - - - - - - -

Other Formats:

Comma delimited format used in spreadsheet applications
http://www.bom.gov.au/fwo/IDW60701/IDW60701.94103.axf

JavaScript Object Notation format (JSON) in row-major order
http://www.bom.gov.au/fwo/IDW60701/IDW60701.94103.json